User: anonymous   Login
Location: Unspecified
(0.0000°N, 0.0000°E)
Time: 23:31:08
(UTC+00:00)
Language:

Optus B3 - Orbit

View from above orbital plane
View from above orbital plane
View from above satellite
View from above satellite

Ground track
Ground track

The orbit data is extracted from the following two-line orbital elements,

1 23227U 94055A   16180.88583087 -.00000092  00000-0  00000+0 0  9993
2 23227   6.8356  52.8448 0003193  43.9268 303.7225  1.00271906 79931
Epoch (UTC): 28 June 2016 21:15:35
Eccentricity: 0.0003193
inclination: 6.8356°
perigee height: 35773 km
apogee height: 35799 km
right ascension of ascending node: 52.8448°
argument of perigee: 43.9268°
revolutions per day: 1.00271906
mean anomaly at epoch: 303.7225°
orbit number at epoch: 7993

The dashed part of the orbit path shows where the satellite is in the earth's shadow,  

DLR